Stanley, ID

3:02 AM MST on February 25, 2018 (GMT -0700)
Stanley

Weather History for KSNT - May, 2012

Change the Weather History Date:

Friday, May 25, 2012

  Actual Average Record
Temperature  
Mean Temperature 38 °F 46 °F  
Max Temperature 47 °F 61 °F 79 °F (1992)
Min Temperature 29 °F 30 °F 16 °F (1920)
Degree Days  
Heating Degree Days 27 20  
Month to date heating degree days 550 570  
Since 1 July heating degree days 10098 10230  
Cooling Degree Days 0 0  
Month to date cooling degree days 0 0  
Year to date cooling degree days 0 0  
Moisture  
Dew Point 31 °F    
Average Humidity 79    
Maximum Humidity 100    
Minimum Humidity 58    
Precipitation  
Precipitation 0.23 in 0.05 in 0.59 in (1998)
Month to date precipitation 1.15 1.40  
Year to date precipitation 12.92 8.24  
Sea Level Pressure  
Sea Level Pressure 29.57 in    
Wind  
Wind Speed 2 mph (NNW)    
Max Wind Speed 12 mph    
Max Gust Speed 15 mph    
T = Trace of Precipitation, MM = Missing Value Source: NWS Daily Summary

Daily Weather History Graph

Daily Weather History Graph

Search for Another Location

Airport or City:

Trip Planner

Search our weather history database for the weather conditions in past years. The results will help you decide how hot, cold, wet, or windy it might be!

Date:

Astronomy

May. 25, 2012 Rise Set
Actual Time 6:03 AM MDT 9:10 PM MDT
Civil Twilight 5:28 AM MDT 9:45 PM MDT
Nautical Twilight 4:43 AM MDT 10:30 PM MDT
Astronomical Twilight 3:49 AM MDT 11:25 PM MDT
Moon 10:10 AM MDT 12:10 AM MDT
Length of Visible Light 16h 17m
Length of Day
15h 07m
Waxing Crescent, 20% of the Moon is Illuminated
May 25
Waxing Crescent
May 28
First Quarter
Jun 4
Full
Jun 11
Last Quarter
Jun 19
New

Hourly Weather History & Observations

Time (MDT) Temp. Windchill Dew Point Humidity Pressure Visibility Wind Dir Wind Speed Gust Speed Precip Events Conditions
12:51 AM 32.0 °F - 30.9 °F 96% 29.57 in - Calm Calm - N/A   Unknown
1:51 AM 32.0 °F - 30.0 °F 92% 29.55 in - Calm Calm - N/A   Unknown
2:51 AM 32.0 °F 27.5 °F 30.0 °F 92% 29.55 in - NNW 4.6 mph - N/A   Unknown
3:51 AM 30.9 °F - 30.0 °F 96% 29.57 in - Calm Calm - N/A   Unknown
4:51 AM 32.0 °F - 30.0 °F 92% 29.53 in - Calm Calm - 0.02 in   Unknown
5:51 AM 30.9 °F 27.5 °F 30.0 °F 96% 29.53 in - North 3.5 mph - 0.03 in   Unknown
6:51 AM 30.9 °F 27.5 °F 30.0 °F 96% 29.52 in - NNW 3.5 mph - N/A   Unknown
7:51 AM 32.0 °F 27.5 °F 30.9 °F 96% 29.51 in - NNW 4.6 mph - 0.02 in   Unknown
8:51 AM 33.1 °F 28.7 °F 30.9 °F 92% 29.52 in - NNW 4.6 mph - N/A   Unknown
9:51 AM 35.1 °F - 32.0 °F 89% 29.52 in - Calm Calm - N/A   Unknown
10:51 AM 33.1 °F - 32.0 °F 96% 29.55 in - Calm Calm - 0.03 in   Unknown
11:51 AM 33.1 °F - 32.0 °F 96% 29.56 in - Calm Calm - 0.08 in   Unknown
12:51 PM 35.1 °F 31.0 °F 33.1 °F 92% 29.57 in - NNW 4.6 mph - 0.01 in   Unknown
1:51 PM 37.0 °F - 34.0 °F 89% 29.57 in - Calm Calm - 0.02 in   Unknown
2:51 PM 37.9 °F 33.5 °F 36.0 °F 93% 29.58 in - SSE 5.8 mph - 0.02 in   Unknown
3:51 PM 41.0 °F - 33.1 °F 73% 29.58 in - Calm Calm - N/A   Unknown
4:51 PM 44.1 °F - 33.1 °F 65% 29.57 in - Calm Calm - N/A   Unknown
5:51 PM 46.0 °F 42.5 °F 33.1 °F 61% 29.56 in - NW 6.9 mph - N/A   Unknown
6:51 PM 44.1 °F 42.5 °F 33.1 °F 65% 29.57 in - ENE 3.5 mph - N/A   Unknown
7:51 PM 44.1 °F 42.5 °F 30.9 °F 60% 29.57 in - Variable 3.5 mph - N/A   Unknown
8:51 PM 39.9 °F 35.8 °F 32.0 °F 73% 29.58 in - West 5.8 mph - N/A   Unknown
9:51 PM 35.1 °F - 30.9 °F 85% 29.63 in - Calm Calm - N/A   Unknown
10:51 PM 30.9 °F - 28.9 °F 92% 29.68 in - Calm Calm - N/A   Unknown
11:51 PM 30.9 °F 27.5 °F 28.9 °F 92% 29.69 in - ESE 3.5 mph - N/A   Unknown